SALSAT

Last updated on July 6, 2021, 3:39 p.m. UTC

1 46495U 20068K   21186.89660293  .00001040  00000-0  80678-4 0  9993
2 46495  97.6931 124.2810 0017251  14.6694 345.5029 15.03487621 42101
UTC
Height (km)
Latitude
Longitude
Inclination
Orbital Period
UTC large
Height (km)
Speed (km/s)
/
Latitude / Longitude
Inclination (degrees)
Orbital Period (minutes)
Azimuth
Elevation
Range (km)
Doppler Factor
iOS Compass Heading
iOS Angle